Flag for Turkey Weather past 2 weeks in Izmir, Turkey

Now
88 °F

Passing clouds.


Feels Like: 86 °F
Forecast: 68 / 92 °F
Wind: 14 mph from Northeast

Location: Izmir / Adnan Menderes

Current Time: Jul 4, 2015 at 5:24:54 PM

Latest Report: Jul 4, 2015 at 4:50 PM


Visibility: N/A

Pressure: 29.92 "Hg

Humidity: 31%

Dew point: 54 °F

Location of IzmirLocation

Historic Weather in Izmir — Graph

°F

Izmir temperature yesterday

Maximum temperature yesterday: 88 °F (at 1:20 PM)
Minimum temperature yesterday: 72 °F (at 4:50 AM)
Average temperature yesterday: 80 °F

Past Weeks' High & Low Weather Summary

 TemperatureHumidityPressure
High90 °F (Jul 1, 3:20 PM)88% (Jun 22, 5:50 AM)30.01 "Hg (Jun 22, 5:50 AM)
Low61 °F (Jun 21, 5:20 AM)20% (Jun 21, 2:20 PM)29.68 "Hg (Jun 19, 3:20 PM)
Average76 °F52%29.86 "Hg
* Reported Jun 19 3:20 PM — Jul 4 3:50 PM, Izmir, Weather by CustomWeather, © 2015

Note: Actual official high and low records may vary slightly from our data, if they occured in-between our weather recording intervals... More about our weather records

Advertising

Izmir weather history for previous 24 hours

 ConditionsComfort  
Time TempWeatherWind HumidityBarometerVisibility
3:50 PM
Sat, Jul 4
88 °FPassing clouds.16 mph27%29.95 "HgN/A
3:20 PM86 °FPassing clouds.18 mph31%29.95 "HgN/A
2:50 PM86 °FPassing clouds.17 mph31%29.95 "HgN/A
2:20 PM86 °FPassing clouds.18 mph31%29.95 "HgN/A
1:50 PM84 °FPassing clouds.17 mph35%29.95 "HgN/A
1:20 PM82 °FPassing clouds.21 mph37%29.95 "HgN/A
12:50 PM82 °FPassing clouds.20 mph40%29.98 "HgN/A
12:20 PM82 °FPassing clouds.24 mph40%29.98 "HgN/A
11:50 AM81 °FPassing clouds.22 mph42%29.98 "HgN/A
11:20 AM81 °FSunny.21 mph42%29.98 "Hg10 mi
10:50 AM79 °FSunny.24 mph45%29.98 "Hg10 mi
10:20 AM77 °FSunny.21 mph44%29.98 "Hg10 mi
9:50 AM77 °FSunny.22 mph47%29.98 "Hg10 mi
9:20 AM77 °FSunny.23 mph47%29.98 "Hg10 mi
8:50 AM75 °FSunny.22 mph50%29.98 "Hg10 mi
8:20 AM73 °FSunny.21 mph50%29.98 "Hg10 mi
7:50 AM72 °FSunny.18 mph57%29.98 "Hg10 mi
7:20 AM72 °FSunny.20 mph53%29.98 "Hg10 mi
6:50 AM72 °FClear.20 mph53%29.98 "Hg10 mi
6:20 AM70 °FClear.18 mph53%29.98 "Hg10 mi
5:50 AM70 °FClear.22 mph53%29.98 "Hg10 mi
5:20 AM72 °FClear.23 mph47%29.98 "Hg10 mi
4:50 AM72 °FClear.23 mph47%29.98 "Hg10 mi
4:20 AM72 °FClear.24 mph47%29.98 "Hg10 mi
3:50 AM73 °FClear.24 mph44%29.98 "Hg10 mi
3:20 AM73 °FClear.24 mph44%29.98 "Hg10 mi
2:50 AM73 °FClear.24 mph41%29.98 "Hg10 mi
2:20 AM75 °FClear.22 mph39%29.98 "Hg10 mi
1:50 AM73 °FClear.20 mph44%30.01 "Hg10 mi
1:20 AM73 °FClear.21 mph44%30.01 "Hg10 mi
12:50 AM75 °FClear.18 mph41%30.01 "Hg10 mi
12:20 AM75 °FClear.18 mph41%30.01 "Hg10 mi
11:50 PM
Fri, Jul 3
75 °FClear.23 mph41%30.01 "Hg10 mi
11:20 PM77 °FClear.24 mph36%30.01 "Hg10 mi
10:50 PM77 °FClear.23 mph36%30.01 "Hg10 mi
10:20 PM77 °FClear.22 mph34%30.01 "Hg10 mi
9:50 PM79 °FClear.21 mph34%29.98 "Hg10 mi
9:20 PM79 °FSunny.22 mph39%29.98 "Hg10 mi
8:50 PM79 °FSunny.17 mph39%29.98 "Hg10 mi
8:20 PM81 °FSunny.21 mph37%29.98 "Hg10 mi
7:50 PM82 °FSunny.21 mph35%29.98 "Hg10 mi
7:20 PM84 °FPassing clouds.22 mph35%29.98 "HgN/A
6:50 PM84 °FPassing clouds.22 mph35%29.98 "HgN/A
6:20 PM86 °FPassing clouds.22 mph33%29.98 "HgN/A
5:50 PM86 °FPassing clouds.21 mph33%29.98 "HgN/A
5:20 PM86 °FPassing clouds.21 mph33%29.98 "HgN/A
Weather by CustomWeather, © 2015

See weather overviewHow to use our weather pages